Dublin, VA

3:52 AM EDT on September 23, 2017 (GMT -0400)
New River Valley

Weather History for KPSK - January, 2013

Change the Weather History Date:

Monday, January 21, 2013

  Actual Average (KBCB) Record (KBCB)
Temperature  
Mean Temperature 33 °F -  
Max Temperature 42 °F 37 °F 59 °F (1954)
Min Temperature 24 °F 19 °F -18 °F (1985)
Degree Days  
Heating Degree Days 32    
Moisture  
Dew Point 17 °F    
Average Humidity 52    
Maximum Humidity 86    
Minimum Humidity 33    
Precipitation  
Precipitation 0.00 in - - ()
Sea Level Pressure  
Sea Level Pressure 29.98 in    
Wind  
Wind Speed 8 mph (WSW)    
Max Wind Speed 22 mph    
Max Gust Speed 30 mph    
Visibility 10 miles    
Events      
Averages and records for this station are not official NWS values.
T = Trace of Precipitation, MM = Missing Value Source: NWS Daily Summary

Daily Weather History Graph

Daily Weather History Graph

Search for Another Location

Airport or City:

Trip Planner

Search our weather history database for the weather conditions in past years. The results will help you decide how hot, cold, wet, or windy it might be!

Date:

Astronomy

Jan. 21, 2013 Rise Set
Actual Time 7:32 AM EST 5:35 PM EST
Civil Twilight 7:04 AM EST 6:03 PM EST
Nautical Twilight 6:33 AM EST 6:35 PM EST
Astronomical Twilight 6:02 AM EST 7:06 PM EST
Moon 1:15 PM EST (1/21) 2:59 AM EST (1/21)
Length of Visible Light 10h 59m
Length of Day
10h 03m
Waxing Gibbous, 75% of the Moon is Illuminated
Jan 21
Waxing Gibbous
Jan 26
Full
Feb 3
Last Quarter
Feb 10
New
Feb 17
First Quarter

Hourly Weather History & Observations

Time (EST) Temp. Windchill Dew Point Humidity Pressure Visibility Wind Dir Wind Speed Gust Speed Precip Events Conditions
12:15 AM 33.8 °F 27.7 °F 17.6 °F 52% 30.07 in 10.0 mi WNW 6.9 mph - N/A   Clear
12:35 AM 33.8 °F 27.0 °F 17.6 °F 52% 30.07 in 10.0 mi WNW 8.1 mph - N/A   Clear
12:55 AM 33.8 °F 27.0 °F 17.6 °F 52% 30.06 in 10.0 mi WNW 8.1 mph - N/A   Clear
1:15 AM 32.0 °F 25.6 °F 17.6 °F 55% 30.06 in 10.0 mi West 6.9 mph - N/A   Clear
1:35 AM 33.8 °F 29.6 °F 17.6 °F 52% 30.06 in 10.0 mi West 4.6 mph - N/A   Clear
1:55 AM 32.0 °F - 17.6 °F 55% 30.07 in 10.0 mi Calm Calm - N/A   Clear
2:15 AM 33.8 °F 29.6 °F 17.6 °F 52% 30.07 in 10.0 mi SW 4.6 mph - N/A   Clear
2:35 AM 30.2 °F 26.7 °F 17.6 °F 60% 30.07 in 10.0 mi West 3.5 mph - N/A   Clear
2:55 AM 28.4 °F 22.2 °F 17.6 °F 64% 30.07 in 10.0 mi WNW 5.8 mph - N/A   Clear
3:15 AM 28.4 °F 23.3 °F 17.6 °F 64% 30.07 in 10.0 mi NW 4.6 mph - N/A   Clear
3:35 AM 28.4 °F 23.3 °F 17.6 °F 64% 30.06 in 10.0 mi WNW 4.6 mph - N/A   Clear
3:55 AM 28.4 °F 22.2 °F 17.6 °F 64% 30.06 in 10.0 mi West 5.8 mph - N/A   Clear
4:15 AM 28.4 °F 22.2 °F 17.6 °F 64% 30.05 in 10.0 mi WNW 5.8 mph - N/A   Clear
4:35 AM 28.4 °F 22.2 °F 17.6 °F 64% 30.05 in 10.0 mi West 5.8 mph - N/A   Clear
4:55 AM 30.2 °F - 17.6 °F 60% 30.04 in 10.0 mi Calm Calm - N/A   Clear
5:15 AM 24.8 °F 19.1 °F 19.4 °F 80% 30.04 in 10.0 mi South 4.6 mph - N/A   Clear
5:55 AM 28.4 °F 22.2 °F 19.4 °F 69% 30.03 in 10.0 mi SSW 5.8 mph - N/A   Clear
6:15 AM 28.4 °F 24.6 °F 19.4 °F 69% 30.03 in 10.0 mi South 3.5 mph - N/A   Clear
6:35 AM 26.6 °F - 19.4 °F 74% 30.02 in 10.0 mi Calm Calm - N/A   Clear
6:55 AM 26.6 °F - 21.2 °F 80% 30.02 in 10.0 mi Calm Calm - N/A   Clear
7:15 AM 26.6 °F - 21.2 °F 80% 30.02 in 10.0 mi Calm Calm - N/A   Clear
7:35 AM 26.6 °F - 23.0 °F 86% 30.02 in 10.0 mi Calm Calm - N/A   Clear
7:55 AM 24.8 °F - 21.2 °F 86% 30.02 in 10.0 mi Calm Calm - N/A   Clear
8:15 AM 26.6 °F - 21.2 °F 80% 30.02 in 10.0 mi Calm Calm - N/A   Clear
8:35 AM 28.4 °F 24.6 °F 24.8 °F 86% 30.03 in 10.0 mi South 3.5 mph - N/A   Clear
8:55 AM 30.2 °F 26.7 °F 24.8 °F 80% 30.03 in 10.0 mi SSW 3.5 mph - N/A   Clear
9:15 AM 33.8 °F 30.8 °F 23.0 °F 65% 30.03 in 10.0 mi South 3.5 mph - N/A   Clear
9:35 AM 35.6 °F 32.8 °F 24.8 °F 65% 30.04 in 10.0 mi South 3.5 mph - N/A   Clear
9:55 AM 37.4 °F - 23.0 °F 56% 30.04 in 10.0 mi Calm Calm - N/A   Clear
10:15 AM 39.2 °F 37.0 °F 24.8 °F 56% 30.04 in - SSW 3.5 mph - N/A   Unknown
10:35 AM 39.2 °F 37.0 °F 21.2 °F 49% 30.03 in 10.0 mi SSW 3.5 mph - N/A   Clear
10:55 AM 41.0 °F 34.3 °F 21.2 °F 45% 30.02 in 10.0 mi WSW 11.5 mph - N/A   Clear
11:15 AM 41.0 °F 33.1 °F 23.0 °F 49% 30.01 in 10.0 mi WSW 15.0 mph - N/A   Clear
11:35 AM 41.0 °F 32.5 °F 21.2 °F 45% 30.00 in 10.0 mi WSW 17.3 mph - N/A   Clear
11:55 AM 41.0 °F 32.5 °F 21.2 °F 45% 29.99 in 10.0 mi WSW 17.3 mph - N/A   Clear
12:15 PM 41.0 °F 32.2 °F 19.4 °F 42% 29.98 in 10.0 mi WSW 18.4 mph - N/A   Clear
12:35 PM 41.0 °F 32.5 °F 17.6 °F 39% 29.96 in 10.0 mi WSW 17.3 mph - N/A   Clear
12:55 PM 42.8 °F 35.4 °F 19.4 °F 39% 29.94 in 10.0 mi WSW 15.0 mph - N/A   Clear
1:15 PM 42.8 °F 36.2 °F 19.4 °F 39% 29.93 in 10.0 mi SW 12.7 mph 21.9 mph N/A   Clear
1:35 PM 41.0 °F 33.1 °F 21.2 °F 45% 29.91 in 10.0 mi WSW 15.0 mph - N/A   Clear
1:55 PM 42.8 °F 35.1 °F 21.2 °F 42% 29.91 in 10.0 mi SW 16.1 mph 19.6 mph N/A   Clear
2:15 PM 42.8 °F 35.8 °F 21.2 °F 42% 29.89 in 10.0 mi SW 13.8 mph - N/A   Clear
2:35 PM 41.0 °F 32.2 °F 23.0 °F 49% 29.89 in 10.0 mi SW 18.4 mph - N/A   Clear
2:55 PM 41.0 °F 32.2 °F 23.0 °F 49% 29.89 in 10.0 mi SW 18.4 mph 24.2 mph N/A   Clear
3:15 PM 42.8 °F 33.8 °F 21.2 °F 42% 29.88 in 10.0 mi WSW 21.9 mph 28.8 mph N/A   Clear
3:35 PM 42.8 °F 34.5 °F 19.4 °F 39% 29.89 in 10.0 mi West 18.4 mph 26.5 mph N/A   Clear
3:55 PM 42.8 °F 35.1 °F 19.4 °F 39% 29.89 in 10.0 mi West 16.1 mph 19.6 mph N/A   Clear
4:15 PM 41.0 °F 33.5 °F 19.4 °F 42% 29.89 in 10.0 mi WSW 13.8 mph 25.3 mph N/A   Clear
4:35 PM 39.2 °F 29.3 °F 17.6 °F 42% 29.89 in 10.0 mi WSW 20.7 mph 26.5 mph N/A   Clear
4:55 PM 39.2 °F 31.2 °F 15.8 °F 39% 29.89 in 10.0 mi WSW 13.8 mph 19.6 mph N/A   Clear
5:15 PM 39.2 °F 30.8 °F 15.8 °F 39% 29.89 in 10.0 mi West 15.0 mph 20.7 mph N/A   Clear
5:35 PM 37.4 °F 28.5 °F 15.8 °F 41% 29.90 in 10.0 mi West 15.0 mph 23.0 mph N/A   Clear
5:55 PM 37.4 °F 29.3 °F 12.2 °F 36% 29.91 in 10.0 mi West 12.7 mph 26.5 mph N/A   Clear
6:15 PM 35.6 °F 27.5 °F 10.4 °F 35% 29.91 in 10.0 mi West 11.5 mph 20.7 mph N/A   Clear
6:35 PM 35.6 °F 24.5 °F 10.4 °F 35% 29.91 in 10.0 mi West 20.7 mph 26.5 mph N/A   Clear
6:55 PM 35.6 °F 26.6 °F 8.6 °F 33% 29.91 in 10.0 mi West 13.8 mph 18.4 mph N/A   Clear
7:15 PM 33.8 °F 24.3 °F 8.6 °F 35% 29.92 in 10.0 mi West 13.8 mph - N/A   Clear
7:55 PM 33.8 °F 24.8 °F 8.6 °F 35% 29.92 in 10.0 mi West 12.7 mph 17.3 mph N/A   Clear
8:15 PM 32.0 °F 22.5 °F 8.6 °F 38% 29.92 in 10.0 mi West 12.7 mph 17.3 mph N/A   Clear
8:35 PM 32.0 °F 20.8 °F 8.6 °F 38% 29.92 in 10.0 mi WNW 17.3 mph 26.5 mph N/A   Clear
8:55 PM 30.2 °F 18.5 °F 8.6 °F 40% 29.93 in 10.0 mi West 17.3 mph 20.7 mph N/A   Clear
9:15 PM 30.2 °F 19.8 °F 6.8 °F 37% 29.94 in 10.0 mi WNW 13.8 mph 25.3 mph N/A   Clear
9:35 PM 30.2 °F 19.3 °F 6.8 °F 37% 29.93 in 10.0 mi WNW 15.0 mph 21.9 mph N/A   Clear
9:55 PM 28.4 °F 17.5 °F 6.8 °F 40% 29.93 in 10.0 mi WNW 13.8 mph 29.9 mph N/A   Clear
10:15 PM 28.4 °F 15.8 °F 8.6 °F 43% 29.94 in 10.0 mi WNW 18.4 mph 24.2 mph N/A   Clear
10:35 PM 28.4 °F 16.2 °F 8.6 °F 43% 29.95 in 10.0 mi WNW 17.3 mph 26.5 mph N/A   Clear
10:55 PM 26.6 °F 13.1 °F 8.6 °F 47% 29.96 in 10.0 mi WNW 19.6 mph 25.3 mph N/A   Clear
11:15 PM 26.6 °F 14.3 °F 8.6 °F 47% 29.97 in 10.0 mi West 16.1 mph 27.6 mph N/A   Clear
11:35 PM 24.8 °F 12.9 °F 8.6 °F 50% 29.97 in 10.0 mi West 13.8 mph 26.5 mph N/A   Clear
11:55 PM 24.8 °F 10.7 °F 8.6 °F 50% 29.97 in 10.0 mi West 19.6 mph 26.5 mph N/A   Clear